Tracking 22079 objects as of 5-Dec-2020
HD Live streaming from Space Station
objects crossing your sky now

OV1-9

Track OV1-9 now!
10-day predictions
OV1-9 is classified as:


NORAD ID: 2610
Int'l Code: 1966-111A
Perigee: 482.4 km
Apogee: 4,544.6 km
Inclination: 99.1 °
Period: 138.9 minutes
Semi major axis: 8884 km
RCS: 0.6636 m2 (medium)
Launch date: December 11, 1966
Source: United States (US)
Launch site: AIR FORCE WESTERN TEST RANGE (AFWTR)
aabbcc
Your satellite tracking list
Your tracking list is empty




NASA's NSSDC Master Catalog

Two Line Element Set (TLE):
1 02610U 66111A   20339.38558197  .00000006  00000-0  14497-4 0  9992
2 02610  99.1040 302.4275 2286155 218.2588 123.2206 10.36703040 23375
Source of the keplerian elements: AFSPC